Regional Weather Roundup
Issued by NWS

Home | Current Version | Previous Version | Graphics & Text | Print | Product List | Glossary On
Versions: 1 2 3 4 5 6 7 8 9 10 11 12 13 14 15 16 17 18 19 20 21 22 23 24 25 26 27 28 29 30 31 32 33 34 35 36 37 38 39 40 41 42 43 44 45 46 47 48 49 50
000
ASUS45 KCYS 301910
RWRWY

WYOMING REGIONAL WEATHER ROUNDUP
NATIONAL WEATHER SERVICE CHEYENNE WY
1200 PM MST FRI JAN 30 2015

NOTE:  "FAIR" INDICATES FEW OR NO CLOUDS BELOW 12,000 FEET
WITH NO SIGNIFICANT WEATHER AND/OR OBSTRUCTIONS TO VISIBILITY.

WYZ001-302000-
YELLOWSTONE NATIONAL PARK

CITY           SKY/WX    TMP DP  RH WIND       PRES   REMARKS
LK YELLOWSTONE   N/A      6   3  87 CALM      30.23F
W YELLOWSTONE  NOT AVBL

$$
WYZ002>013-054>058-071-098>099-302000-
NORTHERN WYOMING

CITY           SKY/WX    TMP DP  RH WIND       PRES   REMARKS
JACKSON        SUNNY     16  12  86 NE5       30.24F WCI   9
CODY           FAIR      39  25  56 NE5       30.21S
GREYBULL       FOG       27  24  89 CALM      30.24F VSB 1/4
WORLAND        FAIR      27  23  85 CALM      30.23F
SHERIDAN       FAIR      48  19  31 NW8       30.20F
BUFFALO        FAIR      44  16  32 N9        30.20F
GILLETTE       FAIR      44  22  41 NW8       30.18F
HULETT           N/A    N/A N/A N/A MISG        N/A
NEWCASTLE      FAIR      41  27  56 NW8       30.16F

$$
WYZ014>020-022>026-101>103-302000-
CENTRAL WYOMING

CITY           SKY/WX    TMP DP  RH WIND       PRES   REMARKS
BIG PINEY      FAIR      33  20  58 E8        30.18F WCI  26
PINEDALE       FAIR      27  14  59 NW6       30.19F WCI  20
DUBOIS         FAIR      32   1  27 CALM      30.16F
LANDER         FAIR      35  25  66 CALM      30.19F
RIVERTON       FAIR      34  29  82 CALM      30.21F
CASPER         FAIR      43  20  39 NW5       30.19F
DOUGLAS        FAIR      45  18  34 NW13      30.17F

$$
WYZ021-027>030-104>119-302000-
SOUTHERN WYOMING

CITY           SKY/WX    TMP DP  RH WIND       PRES   REMARKS
EVANSTON       FAIR      34  26  72 NE8       30.13F WCI  27
KEMMERER       FAIR      34  27  75 NE6       30.15F WCI  29
FORT BRIDGER   FAIR      32  27  82 NE7       30.18F WCI  26
ROCK SPRINGS   CLOUDY    34  28  79 NE3       30.16F
DIXON          MOCLDY    39  33  78 CALM      30.18F
RAWLINS        CLOUDY    37  32  82 CALM      30.18F
SARATOGA       CLOUDY    36  30  80 CALM      30.18F
LARAMIE        FAIR      37  26  64 NE7       30.16F WCI  32
CHEYENNE       FAIR      46  25  43 N9        30.14F
TORRINGTON     FAIR      41  25  53 NW5       30.15F
PINE BLUFFS    FAIR      45  28  53 N8        30.14F

$$


USA.gov is the U.S. government's official web portal to all federal, state and local government web resources and services.